,,,PA_Meas_PMT16A,,PR_Meas_QMR101_102,,RH_Meas_QMH101,,SR_Meas_QMS101,,TA_Meas_QMH101,,GenWind,,GenWind,
date,time,status,PA,status,PR,status,RH,status,SR,status,TA,status,DirAvg,status,SpdAvg,
2011-09-23, 00:00:04,VALID,1001.47,VALID,0,VALID,90.472,VALID,0,VALID,24.4037,VALID,129,VALID,1.21211,
2011-09-23, 00:01:04,VALID,1001.45,VALID,0,VALID,90.4568,VALID,0,VALID,24.4037,VALID,129,VALID,1.14297,
2011-09-23, 00:02:04,VALID,1001.44,VALID,0,VALID,90.4644,VALID,0,VALID,24.4037,VALID,129,VALID,1.21992,
2011-09-23, 00:03:04,VALID,1001.42,VALID,0,VALID,90.4797,VALID,0,VALID,24.4037,VALID,145,VALID,1.30156,
2011-09-23, 00:04:04,VALID,1001.44,VALID,0,VALID,90.4034,VALID,0,VALID,24.4233,VALID,149,VALID,1.34883,
2011-09-23, 00:05:04,VALID,1001.43,VALID,0,VALID,90.2584,VALID,0,VALID,24.4428,VALID,149,VALID,1.2668,
2011-09-23, 00:06:04,VALID,1001.43,VALID,0,VALID,90.0982,VALID,0,VALID,24.4428,VALID,149,VALID,1.10781,
2011-09-23, 00:07:04,VALID,1001.42,VALID,0,VALID,89.8922,VALID,0,VALID,24.4604,VALID,149,VALID,0.963281,
2011-09-23, 00:08:04,VALID,1001.42,VALID,0,VALID,89.732,VALID,0,VALID,24.5013,VALID,149,VALID,0.842578,
2011-09-23, 00:09:04,VALID,1001.45,VALID,0,VALID,89.5641,VALID,0,VALID,24.4818,VALID,149,VALID,0.960547,
2011-09-23, 00:10:04,VALID,1001.45,VALID,0,VALID,89.4497,VALID,0,VALID,24.5013,VALID,149,VALID,0.958984,
2011-09-23, 00:11:04,VALID,1001.44,VALID,0,VALID,89.381,VALID,0,VALID,24.5209,VALID,149,VALID,0.865625,
2011-09-23, 00:12:04,VALID,1001.43,VALID,0,VALID,89.175,VALID,0,VALID,24.5599,VALID,149,VALID,1.05078,
2011-09-23, 00:13:04,VALID,1001.42,VALID,0,VALID,88.9003,VALID,0,VALID,24.5599,VALID,149,VALID,0.851172,
2011-09-23, 00:14:04,VALID,1001.44,VALID,0,VALID,88.6028,VALID,0,VALID,24.5794,VALID,149,VALID,0.836719,
2011-09-23, 00:15:04,VALID,1001.44,VALID,0,VALID,88.3815,VALID,0,VALID,24.5794,VALID,149,VALID,0.730859,
2011-09-23, 00:16:04,VALID,1001.42,VALID,0,VALID,88.206,VALID,0,VALID,24.5989,VALID,149,VALID,0.804688,
2011-09-23, 00:17:04,VALID,1001.43,VALID,0,VALID,87.9543,VALID,0,VALID,24.5794,VALID,149,VALID,0.613281,
2011-09-23, 00:18:04,VALID,1001.42,VALID,0,VALID,87.9543,VALID,0,VALID,24.5971,VALID,149,VALID,0.508203,
2011-09-23, 00:19:04,VALID,1001.41,VALID,0,VALID,87.8627,VALID,0,VALID,24.5989,VALID,149,VALID,0.0796875,
2011-09-23, 00:20:04,VALID,1001.37,VALID,0,VALID,87.7559,VALID,0,VALID,24.5989,VALID,149,VALID,0,
2011-09-23, 00:21:04,VALID,1001.36,VALID,0,VALID,87.9161,VALID,0,VALID,24.5794,VALID,149,VALID,0,
2011-09-23, 00:22:04,VALID,1001.34,VALID,0,VALID,88.0229,VALID,0,VALID,24.5404,VALID,149,VALID,0,
2011-09-23, 00:23:04,VALID,1001.31,VALID,0,VALID,88.1145,VALID,0,VALID,24.5013,VALID,149,VALID,0,
2011-09-23, 00:24:04,VALID,1001.29,VALID,0,VALID,88.5036,VALID,0,VALID,24.4428,VALID,149,VALID,0.730469,
2011-09-23, 00:25:04,VALID,1001.27,VALID,0,VALID,89.1521,VALID,0,VALID,24.3842,VALID,149,VALID,0.680469,
2011-09-23, 00:26:04,VALID,1001.26,VALID,0,VALID,89.5641,VALID,0,VALID,24.2848,VALID,149,VALID,0.633984,
2011-09-23, 00:27:04,VALID,1001.25,VALID,0,VALID,89.9227,VALID,0,VALID,24.2671,VALID,149,VALID,0.712109,
2011-09-23, 00:28:04,VALID,1001.23,VALID,0,VALID,90.1821,VALID,0,VALID,24.2476,VALID,149,VALID,0.673828,
2011-09-23, 00:29:04,VALID,1001.18,VALID,0,VALID,90.4644,VALID,0,VALID,24.1891,VALID,149,VALID,0.549609,
2011-09-23, 00:30:04,VALID,1001.19,VALID,0,VALID,90.7085,VALID,0,VALID,24.1696,VALID,149,VALID,0.519141,
2011-09-23, 00:31:04,VALID,1001.14,VALID,0,VALID,90.9374,VALID,0,VALID,24.1696,VALID,149,VALID,0.458594,
2011-09-23, 00:32:04,VALID,1001.11,VALID,0,VALID,91.1358,VALID,0,VALID,24.15,VALID,149,VALID,0.352734,
2011-09-23, 00:33:04,VALID,1001.09,VALID,0,VALID,91.2884,VALID,0,VALID,24.15,VALID,149,VALID,0.276953,
2011-09-23, 00:34:04,VALID,1001.09,VALID,0,VALID,91.4105,VALID,0,VALID,24.15,VALID,149,VALID,0.286719,
2011-09-23, 00:35:04,VALID,1001.06,VALID,0,VALID,91.5326,VALID,0,VALID,24.15,VALID,149,VALID,0.313281,
2011-09-23, 00:36:04,VALID,1001.01,VALID,0,VALID,91.6241,VALID,0,VALID,24.1305,VALID,149,VALID,0.306641,
2011-09-23, 00:37:04,VALID,1000.97,VALID,0,VALID,91.708,VALID,0,VALID,24.1305,VALID,149,VALID,0.284375,
2011-09-23, 00:38:04,VALID,1000.94,VALID,0,VALID,91.8072,VALID,0,VALID,24.1305,VALID,149,VALID,0.439453,
2011-09-23, 00:39:04,VALID,1000.93,VALID,0,VALID,91.8683,VALID,0,VALID,24.1305,VALID,149,VALID,0.362891,
2011-09-23, 00:40:04,VALID,1000.88,VALID,0,VALID,91.9217,VALID,0,VALID,24.111,VALID,149,VALID,0.333203,
2011-09-23, 00:41:04,VALID,1000.85,VALID,0,VALID,91.9598,VALID,0,VALID,24.0915,VALID,149,VALID,0.302344,
2011-09-23, 00:42:04,VALID,1000.83,VALID,0,VALID,91.998,VALID,0,VALID,24.072,VALID,149,VALID,0.165234,
2011-09-23, 00:43:04,VALID,1000.81,VALID,0,VALID,92.0361,VALID,0,VALID,24.0915,VALID,149,VALID,0.0335938,
2011-09-23, 00:44:04,VALID,1000.82,VALID,0,VALID,92.1048,VALID,0,VALID,24.072,VALID,149,VALID,0,
2011-09-23, 00:45:04,VALID,1000.82,VALID,0,VALID,92.1506,VALID,0,VALID,24.0525,VALID,149,VALID,0,
2011-09-23, 00:46:04,VALID,1000.82,VALID,0,VALID,92.2345,VALID,0,VALID,24.0329,VALID,149,VALID,0.00234375,
2011-09-23, 00:47:04,VALID,1000.76,VALID,0,VALID,92.265,VALID,0,VALID,24.0134,VALID,149,VALID,0.415625,
2011-09-23, 00:48:04,VALID,1000.78,VALID,0,VALID,92.2726,VALID,0,VALID,23.9744,VALID,149,VALID,0.817187,
2011-09-23, 00:49:04,VALID,1000.78,VALID,0,VALID,92.2345,VALID,0,VALID,23.9744,VALID,149,VALID,0.838672,
2011-09-23, 00:50:04,VALID,1000.79,VALID,0,VALID,92.1734,VALID,0,VALID,23.9744,VALID,149,VALID,0.823438,
2011-09-23, 00:51:04,VALID,1000.8,VALID,0,VALID,92.12,VALID,0,VALID,23.9939,VALID,149,VALID,0.961328,
2011-09-23, 00:52:04,VALID,1000.76,VALID,0,VALID,92.12,VALID,0,VALID,23.9939,VALID,149,VALID,1.01367,
2011-09-23, 00:53:04,VALID,1000.79,VALID,0,VALID,92.1277,VALID,0,VALID,23.9939,VALID,149,VALID,1.00156,
2011-09-23, 00:54:04,VALID,1000.77,VALID,0,VALID,92.0895,VALID,0,VALID,23.9939,VALID,149,VALID,0.822266,
2011-09-23, 00:55:04,VALID,1000.75,VALID,0,VALID,92.059,VALID,0,VALID,23.9939,VALID,149,VALID,0.955469,
2011-09-23, 00:56:04,VALID,1000.74,VALID,0,VALID,92.0361,VALID,0,VALID,23.9726,VALID,149,VALID,1.00117,
2011-09-23, 00:57:04,VALID,1000.69,VALID,0,VALID,92.0437,VALID,0,VALID,23.9939,VALID,149,VALID,0.856641,
2011-09-23, 00:58:04,VALID,1000.68,VALID,0,VALID,92.0437,VALID,0,VALID,23.9939,VALID,149,VALID,0.93125,
2011-09-23, 00:59:04,VALID,1000.68,VALID,0,VALID,92.0743,VALID,0,VALID,23.9531,VALID,149,VALID,0.657031,
2011-09-23, 01:00:04,VALID,1000.67,VALID,0,VALID,92.12,VALID,0,VALID,23.9744,VALID,149,VALID,0.665625,
2011-09-23, 01:01:04,VALID,1000.63,VALID,0,VALID,92.0819,VALID,0,VALID,23.9549,VALID,149,VALID,0.597266,
2011-09-23, 01:02:04,VALID,1000.6,VALID,0,VALID,92.0285,VALID,0,VALID,23.9744,VALID,149,VALID,0.506641,
2011-09-23, 01:03:04,VALID,1000.59,VALID,0,VALID,91.8988,VALID,0,VALID,23.9354,VALID,149,VALID,0.598047,
2011-09-23, 01:04:04,VALID,1000.56,VALID,0,VALID,91.7767,VALID,0,VALID,23.9336,VALID,149,VALID,0.672266,
2011-09-23, 01:05:04,VALID,1000.54,VALID,0,VALID,91.6928,VALID,0,VALID,23.9549,VALID,149,VALID,0.961719,
2011-09-23, 01:06:04,VALID,1000.53,VALID,0,VALID,91.5631,VALID,0,VALID,23.9744,VALID,149,VALID,0.839063,
2011-09-23, 01:07:04,VALID,1000.55,VALID,0,VALID,91.4334,VALID,0,VALID,23.9726,VALID,149,VALID,0.59375,
2011-09-23, 01:08:04,VALID,1000.56,VALID,0,VALID,91.3876,VALID,0,VALID,23.9726,VALID,149,VALID,0.828516,
2011-09-23, 01:09:04,VALID,1000.54,VALID,0,VALID,91.3876,VALID,0,VALID,23.9921,VALID,149,VALID,0.635547,
2011-09-23, 01:10:04,VALID,1000.55,VALID,0,VALID,91.3647,VALID,0,VALID,24.0134,VALID,149,VALID,0.945313,
2011-09-23, 01:11:04,VALID,1000.49,VALID,0,VALID,91.3113,VALID,0,VALID,24.0116,VALID,149,VALID,0.850781,
2011-09-23, 01:12:04,VALID,1000.51,VALID,0,VALID,91.3037,VALID,0,VALID,24.0329,VALID,149,VALID,0.510156,
2011-09-23, 01:13:04,VALID,1000.49,VALID,0,VALID,91.296,VALID,0,VALID,24.0329,VALID,149,VALID,0.294141,
2011-09-23, 01:14:04,VALID,1000.52,VALID,0,VALID,91.3037,VALID,0,VALID,24.0116,VALID,149,VALID,0.433203,
2011-09-23, 01:15:04,VALID,1000.49,VALID,0,VALID,91.3189,VALID,0,VALID,24.0134,VALID,149,VALID,0.351953,
2011-09-23, 01:16:04,VALID,1000.49,VALID,0,VALID,91.3342,VALID,0,VALID,23.9939,VALID,149,VALID,0.489453,
2011-09-23, 01:17:04,VALID,1000.45,VALID,0,VALID,91.3113,VALID,0,VALID,23.9939,VALID,149,VALID,0.633203,
2011-09-23, 01:18:04,VALID,1000.39,VALID,0,VALID,91.2884,VALID,0,VALID,23.9549,VALID,149,VALID,0.525,
2011-09-23, 01:19:04,VALID,1000.38,VALID,0,VALID,91.2579,VALID,0,VALID,23.9549,VALID,149,VALID,0.544922,
2011-09-23, 01:20:04,VALID,1000.37,VALID,0,VALID,91.2884,VALID,0,VALID,23.9336,VALID,149,VALID,0.730078,
2011-09-23, 01:21:04,VALID,1000.35,VALID,0,VALID,91.2731,VALID,0,VALID,23.9549,VALID,149,VALID,0.674219,
2011-09-23, 01:22:04,VALID,1000.31,VALID,0,VALID,91.2426,VALID,0,VALID,23.9744,VALID,149,VALID,0.338672,
2011-09-23, 01:23:04,VALID,1000.29,VALID,0,VALID,91.1968,VALID,0,VALID,23.9354,VALID,149,VALID,0.382031,
2011-09-23, 01:24:04,VALID,1000.3,VALID,0,VALID,91.2503,VALID,0,VALID,23.9159,VALID,149,VALID,0.40625,
2011-09-23, 01:25:04,VALID,1000.28,VALID,0,VALID,91.2884,VALID,0,VALID,23.9354,VALID,149,VALID,0.175,
2011-09-23, 01:26:04,VALID,1000.31,VALID,0,VALID,91.3266,VALID,0,VALID,23.8963,VALID,149,VALID,0.0207031,
2011-09-23, 01:27:04,VALID,1000.3,VALID,0,VALID,91.3494,VALID,0,VALID,23.8768,VALID,149,VALID,0,
2011-09-23, 01:28:04,VALID,1000.34,VALID,0,VALID,91.3952,VALID,0,VALID,23.8555,VALID,149,VALID,0,
2011-09-23, 01:29:04,VALID,1000.33,VALID,0,VALID,91.4028,VALID,0,VALID,23.8768,VALID,149,VALID,0,
2011-09-23, 01:30:04,VALID,1000.32,VALID,0,VALID,91.4181,VALID,0,VALID,23.8573,VALID,149,VALID,0,
2011-09-23, 01:31:04,VALID,1000.35,VALID,0,VALID,91.4868,VALID,0,VALID,23.8573,VALID,149,VALID,0.414063,
2011-09-23, 01:32:04,VALID,1000.31,VALID,0,VALID,91.5097,VALID,0,VALID,23.8378,VALID,149,VALID,0.509766,
2011-09-23, 01:33:04,VALID,1000.31,VALID,0,VALID,91.5478,VALID,0,VALID,23.8183,VALID,149,VALID,0.364453,
2011-09-23, 01:34:04,VALID,1000.31,VALID,0,VALID,91.6088,VALID,0,VALID,23.7988,VALID,149,VALID,0.272266,
2011-09-23, 01:35:04,VALID,1000.3,VALID,0,VALID,91.6928,VALID,0,VALID,23.7597,VALID,149,VALID,0.332031,
2011-09-23, 01:36:04,VALID,1000.3,VALID,0,VALID,91.8148,VALID,0,VALID,23.7189,VALID,149,VALID,0.277344,
2011-09-23, 01:37:04,VALID,1000.27,VALID,0,VALID,91.9751,VALID,0,VALID,23.7207,VALID,149,VALID,0.408984,
2011-09-23, 01:38:04,VALID,1000.28,VALID,0,VALID,92.1048,VALID,0,VALID,23.6994,VALID,149,VALID,0.472266,
2011-09-23, 01:39:04,VALID,1000.25,VALID,0,VALID,92.2803,VALID,0,VALID,23.6799,VALID,149,VALID,0.562891,
2011-09-23, 01:40:04,VALID,1000.26,VALID,0,VALID,92.4252,VALID,0,VALID,23.7012,VALID,149,VALID,0.404297,
2011-09-23, 01:41:04,VALID,1000.21,VALID,0,VALID,92.532,VALID,0,VALID,23.6817,VALID,149,VALID,0.310547,
2011-09-23, 01:42:04,VALID,1000.2,VALID,0,VALID,92.5931,VALID,0,VALID,23.7012,VALID,149,VALID,0.428906,
2011-09-23, 01:43:04,VALID,1000.2,VALID,0,VALID,92.6465,VALID,0,VALID,23.6817,VALID,149,VALID,0.348437,
2011-09-23, 01:44:04,VALID,1000.21,VALID,0,VALID,92.6465,VALID,0,VALID,23.6817,VALID,149,VALID,0.437891,
2011-09-23, 01:45:04,VALID,1000.21,VALID,0,VALID,92.677,VALID,0,VALID,23.6817,VALID,149,VALID,0.735156,
2011-09-23, 01:46:04,VALID,1000.18,VALID,0,VALID,92.6617,VALID,0,VALID,23.6817,VALID,149,VALID,0.941406,
2011-09-23, 01:47:04,VALID,1000.2,VALID,0,VALID,92.6312,VALID,0,VALID,23.6817,VALID,149,VALID,0.912109,
2011-09-23, 01:48:04,VALID,1000.21,VALID,0,VALID,92.616,VALID,0,VALID,23.6622,VALID,149,VALID,0.663281,
2011-09-23, 01:49:04,VALID,1000.22,VALID,0,VALID,92.5397,VALID,0,VALID,23.6019,VALID,149,VALID,0.547266,
2011-09-23, 01:50:04,VALID,1000.22,VALID,0,VALID,92.4557,VALID,0,VALID,23.5841,VALID,149,VALID,0.169922,
2011-09-23, 01:51:04,VALID,1000.18,VALID,0,VALID,92.3947,VALID,0,VALID,23.5646,VALID,149,VALID,0,
2011-09-23, 01:52:05,VALID,1000.15,VALID,0,VALID,92.41,VALID,0,VALID,23.5451,VALID,149,VALID,0.168359,
2011-09-23, 01:53:05,VALID,1000.14,VALID,0,VALID,92.4557,VALID,0,VALID,23.5451,VALID,149,VALID,0.335547,
2011-09-23, 01:54:05,VALID,1000.13,VALID,0,VALID,92.5549,VALID,0,VALID,23.5451,VALID,149,VALID,0.530078,
2011-09-23, 01:55:05,VALID,1000.18,VALID,0,VALID,92.677,VALID,0,VALID,23.5646,VALID,149,VALID,0.71875,
2011-09-23, 01:56:05,VALID,1000.14,VALID,0,VALID,92.738,VALID,0,VALID,23.5646,VALID,149,VALID,0.837891,
2011-09-23, 01:57:05,VALID,1000.12,VALID,0,VALID,92.7228,VALID,0,VALID,23.5646,VALID,149,VALID,0.905469,
2011-09-23, 01:58:05,VALID,1000.13,VALID,0,VALID,92.7609,VALID,0,VALID,23.5628,VALID,136,VALID,1.10703,
2011-09-23, 01:59:05,VALID,1000.12,VALID,0,VALID,92.7838,VALID,0,VALID,23.6036,VALID,126,VALID,0.981641,
2011-09-23, 02:00:05,VALID,1000.11,VALID,0,VALID,92.8143,VALID,0,VALID,23.6427,VALID,126,VALID,0.832422,
2011-09-23, 02:01:05,VALID,1000.11,VALID,0,VALID,92.8448,VALID,0.112286,VALID,23.6409,VALID,126,VALID,0.650391,
2011-09-23, 02:02:05,VALID,1000.09,VALID,0,VALID,92.8143,VALID,0,VALID,23.6214,VALID,126,VALID,0.621484,
2011-09-23, 02:03:05,VALID,1000.07,VALID,0,VALID,92.8372,VALID,0,VALID,23.6622,VALID,126,VALID,0.469922,
2011-09-23, 02:04:05,VALID,1000.07,VALID,0,VALID,92.8067,VALID,0,VALID,23.6817,VALID,126,VALID,0.574219,
2011-09-23, 02:05:05,VALID,1000.06,VALID,0,VALID,92.7991,VALID,0,VALID,23.7012,VALID,126,VALID,0.778125,
2011-09-23, 02:06:05,VALID,1000.08,VALID,0,VALID,92.7838,VALID,0,VALID,23.7207,VALID,126,VALID,0.502734,
2011-09-23, 02:07:05,VALID,1000.07,VALID,0,VALID,92.738,VALID,0,VALID,23.7189,VALID,126,VALID,0.623828,
2011-09-23, 02:08:05,VALID,1000.07,VALID,0,VALID,92.6617,VALID,0,VALID,23.7579,VALID,148,VALID,0.525781,
2011-09-23, 02:09:05,VALID,1000.06,VALID,0,VALID,92.5854,VALID,0,VALID,23.7793,VALID,148,VALID,0.613672,
2011-09-23, 02:10:05,VALID,1000.06,VALID,0,VALID,92.4634,VALID,0,VALID,23.7988,VALID,148,VALID,0.624219,
2011-09-23, 02:11:05,VALID,1000.05,VALID,0,VALID,92.326,VALID,0,VALID,23.7988,VALID,148,VALID,0.835156,
2011-09-23, 02:12:05,VALID,1000.06,VALID,0,VALID,92.1887,VALID,0,VALID,23.8378,VALID,148,VALID,0.917578,
2011-09-23, 02:13:05,VALID,1000.03,VALID,0,VALID,92.0361,VALID,0,VALID,23.8768,VALID,148,VALID,0.783984,
2011-09-23, 02:14:05,VALID,1000.03,VALID,0,VALID,91.8911,VALID,0,VALID,23.8963,VALID,148,VALID,0.864062,
2011-09-23, 02:15:05,VALID,1000.01,VALID,0,VALID,91.7462,VALID,0,VALID,23.8963,VALID,148,VALID,0.76875,
2011-09-23, 02:16:05,VALID,1000.01,VALID,0,VALID,91.6317,VALID,0,VALID,23.8963,VALID,148,VALID,0.819922,
2011-09-23, 02:17:05,VALID,1000,VALID,0,VALID,91.5097,VALID,0,VALID,23.9159,VALID,148,VALID,0.691016,
2011-09-23, 02:18:05,VALID,1000.01,VALID,0,VALID,91.4486,VALID,0,VALID,23.9159,VALID,148,VALID,0.698438,
2011-09-23, 02:19:05,VALID,1000.02,VALID,0,VALID,91.3952,VALID,0,VALID,23.914,VALID,148,VALID,0.860156,
2011-09-23, 02:20:05,VALID,999.99,VALID,0,VALID,91.38,VALID,0,VALID,23.9354,VALID,148,VALID,0.783594,
2011-09-23, 02:21:05,VALID,1000.05,VALID,0,VALID,91.3189,VALID,0,VALID,23.9549,VALID,148,VALID,0.760938,
2011-09-23, 02:22:05,VALID,1000.02,VALID,0,VALID,91.2503,VALID,0,VALID,23.9762,VALID,148,VALID,0.846094,
2011-09-23, 02:23:05,VALID,1000.04,VALID,0,VALID,91.174,VALID,0,VALID,23.9549,VALID,148,VALID,0.766797,
2011-09-23, 02:24:05,VALID,1000.04,VALID,0,VALID,91.1511,VALID,0,VALID,23.9744,VALID,148,VALID,0.776563,
2011-09-23, 02:25:05,VALID,1000.01,VALID,0,VALID,91.1434,VALID,0,VALID,23.9744,VALID,148,VALID,0.794141,
2011-09-23, 02:26:05,VALID,1000.02,VALID,0,VALID,91.1434,VALID,0,VALID,23.9744,VALID,148,VALID,0.716406,
2011-09-23, 02:27:05,VALID,1000.01,VALID,0,VALID,91.1358,VALID,0,VALID,23.9744,VALID,148,VALID,0.678516,
2011-09-23, 02:28:05,VALID,999.993,VALID,0,VALID,91.1206,VALID,0,VALID,23.9531,VALID,148,VALID,0.609375,
2011-09-23, 02:29:05,VALID,999.979,VALID,0,VALID,91.1587,VALID,0,VALID,23.9531,VALID,148,VALID,0.682031,
2011-09-23, 02:30:05,VALID,999.961,VALID,0,VALID,91.1968,VALID,0,VALID,23.9549,VALID,148,VALID,0.515234,
2011-09-23, 02:31:05,VALID,999.955,VALID,0,VALID,91.235,VALID,0,VALID,23.9354,VALID,148,VALID,0.296094,
2011-09-23, 02:32:05,VALID,999.936,VALID,0,VALID,91.2655,VALID,0,VALID,23.8945,VALID,148,VALID,0.286328,
2011-09-23, 02:33:05,VALID,999.922,VALID,0,VALID,91.2579,VALID,0,VALID,23.8963,VALID,148,VALID,0.360938,
2011-09-23, 02:34:05,VALID,999.943,VALID,0,VALID,91.3342,VALID,0,VALID,23.8768,VALID,148,VALID,0.451953,
2011-09-23, 02:35:05,VALID,999.936,VALID,0,VALID,91.4791,VALID,0,VALID,23.8591,VALID,148,VALID,0.434766,
2011-09-23, 02:36:05,VALID,999.908,VALID,0,VALID,91.6012,VALID,0,VALID,23.8183,VALID,148,VALID,0.544922,
2011-09-23, 02:37:05,VALID,999.915,VALID,0,VALID,91.7843,VALID,0,VALID,23.8183,VALID,148,VALID,0.477344,
2011-09-23, 02:38:05,VALID,999.889,VALID,0,VALID,91.8835,VALID,0,VALID,23.7775,VALID,148,VALID,0.490234,
2011-09-23, 02:39:05,VALID,999.906,VALID,0,VALID,91.9445,VALID,0,VALID,23.7793,VALID,148,VALID,0.585156,
2011-09-23, 02:40:05,VALID,999.905,VALID,0,VALID,92.0514,VALID,0,VALID,23.7402,VALID,148,VALID,0.632813,
2011-09-23, 02:41:05,VALID,999.939,VALID,0,VALID,92.1658,VALID,0,VALID,23.7402,VALID,148,VALID,0.635938,
2011-09-23, 02:42:05,VALID,999.931,VALID,0,VALID,92.2345,VALID,0,VALID,23.7207,VALID,148,VALID,0.582812,
2011-09-23, 02:43:05,VALID,999.923,VALID,0,VALID,92.2879,VALID,0,VALID,23.7207,VALID,148,VALID,0.733984,
2011-09-23, 02:44:05,VALID,999.91,VALID,0,VALID,92.2955,VALID,0,VALID,23.7012,VALID,96,VALID,0.896094,
2011-09-23, 02:45:05,VALID,999.937,VALID,0,VALID,92.3413,VALID,0,VALID,23.6817,VALID,86,VALID,0.895703,
2011-09-23, 02:46:05,VALID,999.887,VALID,0,VALID,92.3413,VALID,0,VALID,23.6427,VALID,84,VALID,0.824219,
2011-09-23, 02:47:05,VALID,999.895,VALID,0,VALID,92.41,VALID,0,VALID,23.6232,VALID,84,VALID,0.675781,
2011-09-23, 02:48:05,VALID,999.872,VALID,0,VALID,92.4557,VALID,0,VALID,23.6036,VALID,84,VALID,0.483594,
2011-09-23, 02:49:05,VALID,999.886,VALID,0,VALID,92.5168,VALID,0,VALID,23.5841,VALID,84,VALID,0.384375,
2011-09-23, 02:50:05,VALID,999.898,VALID,0,VALID,92.5778,VALID,0,VALID,23.5841,VALID,84,VALID,0.178125,
2011-09-23, 02:51:05,VALID,999.874,VALID,0,VALID,92.6312,VALID,0,VALID,23.5646,VALID,84,VALID,0.459375,
2011-09-23, 02:52:05,VALID,999.891,VALID,0,VALID,92.7075,VALID,0,VALID,23.5646,VALID,84,VALID,0.465625,
2011-09-23, 02:53:05,VALID,999.904,VALID,0,VALID,92.8067,VALID,0,VALID,23.5646,VALID,84,VALID,0.624219,
2011-09-23, 02:54:05,VALID,999.91,VALID,0,VALID,92.883,VALID,0,VALID,23.6036,VALID,103,VALID,0.875781,
2011-09-23, 02:55:05,VALID,999.883,VALID,0,VALID,92.944,VALID,0,VALID,23.6054,VALID,103,VALID,0.941406,
2011-09-23, 02:56:05,VALID,999.906,VALID,0,VALID,92.9745,VALID,0,VALID,23.6036,VALID,103,VALID,0.597656,
2011-09-23, 02:57:05,VALID,999.904,VALID,0,VALID,93.0051,VALID,0,VALID,23.6036,VALID,103,VALID,0.500391,
2011-09-23, 02:58:05,VALID,999.92,VALID,0,VALID,92.9974,VALID,0,VALID,23.6036,VALID,103,VALID,0,
2011-09-23, 02:59:05,VALID,999.906,VALID,0,VALID,92.9822,VALID,0,VALID,23.6232,VALID,103,VALID,0,
2011-09-23, 03:00:05,VALID,999.928,VALID,0,VALID,92.9745,VALID,0,VALID,23.5841,VALID,103,VALID,0.514844,
2011-09-23, 03:01:05,VALID,999.94,VALID,0,VALID,92.9822,VALID,0,VALID,23.5841,VALID,103,VALID,0.477344,
2011-09-23, 03:02:05,VALID,999.937,VALID,0,VALID,92.9517,VALID,0,VALID,23.5646,VALID,103,VALID,0.368359,
2011-09-23, 03:03:05,VALID,999.958,VALID,0,VALID,92.944,VALID,0,VALID,23.5646,VALID,103,VALID,0,
2011-09-23, 03:04:05,VALID,999.96,VALID,0,VALID,92.9517,VALID,0,VALID,23.5646,VALID,103,VALID,0,
2011-09-23, 03:05:05,VALID,999.964,VALID,0,VALID,92.9517,VALID,0,VALID,23.5451,VALID,103,VALID,0,
2011-09-23, 03:06:05,VALID,999.99,VALID,0,VALID,92.9669,VALID,0,VALID,23.5469,VALID,103,VALID,0,
2011-09-23, 03:07:05,VALID,999.974,VALID,0,VALID,92.9745,VALID,0,VALID,23.5256,VALID,103,VALID,0,
2011-09-23, 03:08:05,VALID,999.986,VALID,0,VALID,92.9669,VALID,0,VALID,23.5256,VALID,103,VALID,0,
2011-09-23, 03:09:05,VALID,999.988,VALID,0,VALID,92.9745,VALID,0,VALID,23.5469,VALID,103,VALID,0,
2011-09-23, 03:10:05,VALID,999.974,VALID,0,VALID,92.9669,VALID,0,VALID,23.5061,VALID,103,VALID,0,
2011-09-23, 03:11:05,VALID,999.997,VALID,0,VALID,93.0127,VALID,0,VALID,23.5451,VALID,103,VALID,0.466406,
2011-09-23, 03:12:05,VALID,999.966,VALID,0,VALID,92.9974,VALID,0,VALID,23.5646,VALID,103,VALID,0.583594,
2011-09-23, 03:13:05,VALID,999.967,VALID,0,VALID,92.9974,VALID,0,VALID,23.5841,VALID,103,VALID,0.630469,
2011-09-23, 03:14:05,VALID,999.989,VALID,0,VALID,92.9745,VALID,0,VALID,23.6232,VALID,104,VALID,0.975781,
2011-09-23, 03:15:05,VALID,999.984,VALID,0,VALID,92.9135,VALID,0,VALID,23.6622,VALID,152,VALID,1.13555,
2011-09-23, 03:16:05,VALID,1000,VALID,0,VALID,92.7991,VALID,0,VALID,23.7207,VALID,153,VALID,1.0957,
2011-09-23, 03:17:05,VALID,999.994,VALID,0,VALID,92.5626,VALID,0,VALID,23.7793,VALID,153,VALID,1.01445,
2011-09-23, 03:18:05,VALID,1000.01,VALID,0,VALID,92.2116,VALID,0,VALID,23.8183,VALID,153,VALID,1.04062,
2011-09-23, 03:19:05,VALID,1000.05,VALID,0,VALID,91.8225,VALID,0,VALID,23.836,VALID,157,VALID,0.909375,
2011-09-23, 03:20:05,VALID,1000.04,VALID,0,VALID,91.2884,VALID,0,VALID,23.8963,VALID,170,VALID,0.821484,
2011-09-23, 03:21:05,VALID,1000.07,VALID,0,VALID,90.5788,VALID,0,VALID,23.9159,VALID,170,VALID,0.910547,
2011-09-23, 03:22:05,VALID,1000.06,VALID,0,VALID,90.0906,VALID,0,VALID,23.9549,VALID,170,VALID,0.848047,
2011-09-23, 03:23:05,VALID,1000.09,VALID,0,VALID,89.8159,VALID,0,VALID,23.9744,VALID,170,VALID,0.930469,
2011-09-23, 03:24:05,VALID,1000.07,VALID,0,VALID,89.5641,VALID,0,VALID,23.9744,VALID,170,VALID,0.853516,
2011-09-23, 03:25:05,VALID,1000.06,VALID,0,VALID,89.4497,VALID,0,VALID,23.9939,VALID,170,VALID,0.857031,
2011-09-23, 03:26:05,VALID,1000.06,VALID,0,VALID,89.3657,VALID,0,VALID,23.9939,VALID,170,VALID,0.664453,
2011-09-23, 03:27:05,VALID,1000.07,VALID,0,VALID,89.2666,VALID,0,VALID,24.0134,VALID,170,VALID,0.875781,
2011-09-23, 03:28:05,VALID,1000.05,VALID,0,VALID,89.2284,VALID,0,VALID,24.0329,VALID,170,VALID,0.939844,
2011-09-23, 03:29:05,VALID,1000.04,VALID,0,VALID,89.0606,VALID,0,VALID,24.0329,VALID,170,VALID,1.15117,
2011-09-23, 03:30:05,VALID,1000.07,VALID,0,VALID,88.9995,VALID,0,VALID,24.0311,VALID,170,VALID,0.828516,
2011-09-23, 03:31:05,VALID,1000.03,VALID,0,VALID,88.9385,VALID,0,VALID,24.0525,VALID,170,VALID,0.774609,
2011-09-23, 03:32:05,VALID,1000.05,VALID,0,VALID,88.9537,VALID,0,VALID,24.0525,VALID,170,VALID,0.803906,
2011-09-23, 03:33:05,VALID,1000.08,VALID,0,VALID,89.0606,VALID,0,VALID,24.0329,VALID,170,VALID,0.992578,
2011-09-23, 03:34:05,VALID,1000.08,VALID,0,VALID,88.9309,VALID,0,VALID,24.0311,VALID,170,VALID,0.961328,
2011-09-23, 03:35:05,VALID,1000.06,VALID,0,VALID,88.8317,VALID,0,VALID,24.0311,VALID,170,VALID,0.890234,
2011-09-23, 03:36:05,VALID,1000.07,VALID,0,VALID,88.7477,VALID,0,VALID,24.0311,VALID,170,VALID,0.723437,
2011-09-23, 03:37:05,VALID,1000.09,VALID,0,VALID,88.7401,VALID,0,VALID,24.0311,VALID,170,VALID,0.45,
2011-09-23, 03:38:05,VALID,1000.09,VALID,0,VALID,88.7859,VALID,0,VALID,24.0116,VALID,170,VALID,0.522266,
2011-09-23, 03:39:05,VALID,1000.09,VALID,0,VALID,88.7401,VALID,0,VALID,24.0134,VALID,170,VALID,0.692969,
2011-09-23, 03:40:05,VALID,1000.11,VALID,0,VALID,88.6562,VALID,0,VALID,24.0329,VALID,170,VALID,0.732031,
2011-09-23, 03:41:05,VALID,1000.13,VALID,0,VALID,88.6028,VALID,0,VALID,23.9921,VALID,170,VALID,0.317578,
2011-09-23, 03:42:05,VALID,1000.17,VALID,0,VALID,88.5875,VALID,0,VALID,24.0329,VALID,170,VALID,0.153125,
2011-09-23, 03:43:05,VALID,1000.18,VALID,0,VALID,88.8164,VALID,0,VALID,24.0134,VALID,170,VALID,0.311719,
2011-09-23, 03:44:05,VALID,1000.19,VALID,0,VALID,89.3428,VALID,0,VALID,24.0134,VALID,170,VALID,0.456641,
2011-09-23, 03:45:05,VALID,1000.21,VALID,0,VALID,89.7854,VALID,0,VALID,23.9939,VALID,170,VALID,0.418359,